Location: Keppel Henge
(44.7900°N, 80.9447°W)
Time: 09:40:02
(UTC-04:00)

Vanguard 1 Rocket - Visible Passes

Search period start: 23 October 2017 00:00
Search period end: 02 November 2017 00:00
Orbit: 655 x 4222 km, 34.3° (Epoch: 22 October)

Date Brightness Start Highest point End Pass type
(mag) Time Alt. Az. Time Alt. Az. Time Alt. Az.
23 Oct 10.3 05:46:51 10° SSW 05:53:43 17° SSE 05:58:39 10° ESE visible
24 Oct 10.8 04:36:35 10° S 04:42:05 13° SSE 04:46:27 10° SE visible
24 Oct 9.7 06:59:56 10° SW 07:08:12 27° S 07:13:28 10° ESE visible
25 Oct 10.1 05:47:39 10° SSW 05:56:55 23° SSE 06:02:54 10° ESE visible
26 Oct 10.5 04:36:59 11° SSW 04:45:15 19° SSE 04:51:41 10° ESE visible
26 Oct 9.5 07:01:56 10° SW 07:11:24 32° S 07:17:04 10° ESE visible
27 Oct 10.9 03:30:33 14° SSE 03:33:13 14° SSE 03:39:06 10° ESE visible
27 Oct 9.9 05:49:00 10° SW 06:00:05 30° SSE 06:06:44 10° ESE visible
28 Oct 10.3 04:41:21 18° SSW 04:48:23 26° SSE 04:55:57 10° ESE visible
28 Oct 9.3 07:04:09 10° WSW 07:14:34 37° S 07:20:33 10° ESE visible
29 Oct 10.7 03:34:43 20° SSE 03:36:16 21° SSE 03:44:20 10° ESE visible
29 Oct 9.7 05:52:03 13° SW 06:03:14 36° S 06:10:21 10° ESE visible
30 Oct 11.1 02:27:59 13° SE 02:27:59 13° SE 02:30:58 10° ESE visible
30 Oct 10.1 04:45:19 24° SSW 04:51:27 32° SSE 04:59:47 10° ESE visible
30 Oct 9.2 07:06:31 10° WSW 07:17:42 41° S 07:23:57 10° ESE visible
31 Oct 10.5 03:38:31 27° SSE 03:39:16 27° SSE 03:48:38 10° ESE visible
31 Oct 9.5 05:55:50 16° SW 06:06:20 41° S 06:13:50 10° ESE visible
01 Nov 10.9 02:31:39 18° SE 02:31:39 18° SE 02:36:25 10° ESE visible
01 Nov 9.9 04:48:57 30° SSW 04:54:31 38° SSE 05:03:23 10° ESE visible
01 Nov 9.2 07:09:00 10° WSW 07:20:47 43° S 07:27:15 10° ESE visible
